Logan - 24 Hour Table
Date & TimeSolar
Radiation
(W/m²)
Wind
Speed
(mph)
Wind
Direction
(degrees)
Air
Temperature
(°F)
Relative
Humidity
(%)
Precipitation
(inches)
Barometric
Pressure
(inHg)
2017/04/24 21:00 0 4.4 184 40.0 94 0.00 29.77
2017/04/24 20:00 3 2.7 200 40.6 92 0.00 29.76
2017/04/24 19:00 61 4.5 73 41.6 86 0.00 29.75
2017/04/24 18:00 36 4.8 52 42.3 89 0.02 29.75
2017/04/24 17:00 39 4.4 252 42.5 88 0.05 29.74
2017/04/24 16:00 148 7.4 157 44.8 85 0.03 29.73
2017/04/24 15:00 141 5.1 162 43.6 86 0.02 29.72
2017/04/24 14:00 177 5.7 78 44.9 91 0.05 29.74
2017/04/24 13:00 130 3.4 61 43.9 89 0.07 29.73
2017/04/24 12:00 116 5.8 243 43.2 92 0.08 29.73
2017/04/24 11:00 102 7.1 174 47.1 85 0.02 29.74
2017/04/24 10:00 90 8.2 172 46.7 82 0.03 29.72
2017/04/24 09:00 130 4.6 156 46.8 80 0.00 29.72
2017/04/24 08:00 99 6.1 74 42.4 79 0.01 29.73
2017/04/24 07:00 36 2.5 320 40.1 93 0.00 29.74
2017/04/24 06:00 4 3.3 358 39.1 93 0.00 29.74
2017/04/24 05:00 0 2.8 30 37.7 93 0.00 29.75
2017/04/24 04:00 0 1.9 161 38.1 88 0.00 29.76
2017/04/24 03:00 0 3.2 235 37.3 93 0.00 29.77
2017/04/24 02:00 0 3.1 46 41.6 84 0.00 29.78
2017/04/24 01:00 0 4.9 65 43.4 80 0.00 29.81
2017/04/24 00:00 0 3.9 7 41.4 84 0.00 29.82
2017/04/23 23:00 0 4.5 101 46.4 89 0.00 29.81
2017/04/23 22:00 0 3.4 161 44.9 78 0.00 29.82